When you browse on this site, cookies collect data to enhance your experience and personalize the content and advertising you see.
Visit our Privacy Policy to learn more. By continuing to use the site, you agree to this use of cookies and data.
  • In Belgien
  • Länderverzeichnis
  • Für 7 Tage
  • Wassertemperatur
  • Satellitenkarten
  • Wetterkarte
  • Widgets
  • user-avatar
    Anmelden

    Stündliche Wetter Mostar

    Heute, 25 April, Donnerstag

    Zeit Temperatur Niederschläge Wind Luftdruck Luftfeuchtigkeit
    00:00 +16°C° 0 mm 3 m/S 757 mmHg 65%
    01:00 +15°C° 0 mm 2 m/S 757 mmHg 63%
    02:00 +15°C° 0 mm 2 m/S 757 mmHg 64%
    03:00 +15°C° 0 mm 2 m/S 758 mmHg 66%
    04:00 +15°C° 0 mm 2 m/S 758 mmHg 67%
    05:00 +16°C° 0 mm 2 m/S 758 mmHg 67%
    06:00 +17°C° 0 mm 2 m/S 758 mmHg 66%
    07:00 +19°C° 0 mm 2 m/S 758 mmHg 62%
    08:00 +20°C° 0 mm 2 m/S 758 mmHg 59%
    09:00 +21°C° 0 mm 3 m/S 758 mmHg 56%
    10:00 +24°C° 0 mm 3 m/S 758 mmHg 53%
    11:00 +24°C° 0 mm 3 m/S 758 mmHg 52%
    12:00 +25°C° 0 mm 3 m/S 758 mmHg 51%
    13:00 +25°C° 0 mm 3 m/S 758 mmHg 50%
    14:00 +25°C° 0 mm 3 m/S 758 mmHg 51%
    15:00 +24°C° 0 mm 3 m/S 757 mmHg 52%
    16:00 +24°C° 0 mm 2 m/S 757 mmHg 54%
    17:00 +21°C° 0 mm 2 m/S 757 mmHg 60%
    18:00 +20°C° 0 mm 2 m/S 757 mmHg 65%
    19:00 +19°C° 0 mm 1 m/S 757 mmHg 71%
    20:00 +19°C° 0 mm 1 m/S 757 mmHg 71%
    21:00 +18°C° 0 mm 1 m/S 757 mmHg 71%
    22:00 +17°C° 0 mm 2 m/S 758 mmHg 72%
    23:00 +17°C° 0 mm 2 m/S 758 mmHg 71%

    Morgen, 26 April, Freitag

    Zeit Temperatur Niederschläge Wind Luftdruck Luftfeuchtigkeit
    00:00 +16°C° 0 mm 2 m/S 757 mmHg 70%
    01:00 +16°C° 0 mm 2 m/S 757 mmHg 69%
    02:00 +16°C° 0 mm 2 m/S 757 mmHg 68%
    03:00 +16°C° 0 mm 2 m/S 757 mmHg 66%
    04:00 +16°C° 0 mm 2 m/S 756 mmHg 65%
    05:00 +17°C° 0 mm 2 m/S 756 mmHg 64%
    06:00 +18°C° 0 mm 2 m/S 756 mmHg 63%
    07:00 +19°C° 0 mm 2 m/S 756 mmHg 62%
    08:00 +21°C° 0 mm 2 m/S 756 mmHg 57%
    09:00 +22°C° 0 mm 3 m/S 755 mmHg 53%
    10:00 +25°C° 0 mm 3 m/S 755 mmHg 48%
    11:00 +25°C° 0 mm 3 m/S 755 mmHg 48%
    12:00 +26°C° 0 mm 3 m/S 754 mmHg 47%
    13:00 +26°C° 0 mm 4 m/S 754 mmHg 47%
    14:00 +26°C° 0 mm 4 m/S 754 mmHg 48%
    15:00 +25°C° 0 mm 3 m/S 754 mmHg 49%
    16:00 +25°C° 0 mm 3 m/S 753 mmHg 50%
    17:00 +22°C° 0 mm 3 m/S 753 mmHg 55%
    18:00 +21°C° 0 mm 3 m/S 753 mmHg 61%
    19:00 +19°C° 0 mm 2 m/S 753 mmHg 66%
    20:00 +19°C° 0.2 mm 2 m/S 753 mmHg 68%
    21:00 +18°C° 0.2 mm 2 m/S 754 mmHg 70%
    22:00 +18°C° 0.2 mm 2 m/S 754 mmHg 72%
    23:00 +17°C° 0.7 mm 2 m/S 754 mmHg 74%

    übermorgen, 27 April, Samstag

    Zeit Temperatur Niederschläge Wind Luftdruck Luftfeuchtigkeit
    00:00 +17°C° 0.7 mm 3 m/S 753 mmHg 77%
    01:00 +17°C° 0.7 mm 3 m/S 753 mmHg 80%
    02:00 +16°C° 0.7 mm 3 m/S 753 mmHg 82%
    03:00 +16°C° 0.7 mm 2 m/S 753 mmHg 84%
    04:00 +16°C° 0.7 mm 2 m/S 753 mmHg 87%
    05:00 +16°C° 0.6 mm 2 m/S 753 mmHg 86%
    06:00 +17°C° 0.6 mm 2 m/S 753 mmHg 86%
    07:00 +18°C° 0.6 mm 1 m/S 753 mmHg 85%
    08:00 +18°C° 0.4 mm 2 m/S 754 mmHg 80%
    09:00 +19°C° 0.4 mm 2 m/S 754 mmHg 75%
    10:00 +20°C° 0.4 mm 2 m/S 754 mmHg 71%
    11:00 +20°C° 0.2 mm 3 m/S 754 mmHg 62%
    12:00 +21°C° 0.2 mm 4 m/S 754 mmHg 54%
    13:00 +21°C° 0.2 mm 5 m/S 754 mmHg 46%
    14:00 +20°C° 0 mm 5 m/S 754 mmHg 47%
    15:00 +20°C° 0 mm 4 m/S 753 mmHg 49%
    16:00 +19°C° 0 mm 4 m/S 753 mmHg 51%
    17:00 +18°C° 0 mm 3 m/S 754 mmHg 58%
    18:00 +16°C° 0 mm 3 m/S 754 mmHg 66%
    19:00 +15°C° 0 mm 2 m/S 754 mmHg 74%
    20:00 +14°C° 0 mm 1 m/S 754 mmHg 76%
    21:00 +14°C° 0 mm 1 m/S 755 mmHg 77%
    22:00 +13°C° 0 mm 1 m/S 755 mmHg 79%
    23:00 +13°C° 0 mm 1 m/S 755 mmHg 80%

    28 April, Sonntag

    Zeit Temperatur Niederschläge Wind Luftdruck Luftfeuchtigkeit
    00:00 +12°C° 0 mm 1 m/S 755 mmHg 80%
    01:00 +12°C° 0 mm 1 m/S 755 mmHg 81%
    02:00 +12°C° 0 mm 1 m/S 755 mmHg 80%
    03:00 +12°C° 0 mm 1 m/S 755 mmHg 80%
    04:00 +11°C° 0 mm 1 m/S 754 mmHg 80%
    05:00 +12°C° 0 mm 1 m/S 754 mmHg 75%
    06:00 +14°C° 0 mm 1 m/S 754 mmHg 71%
    07:00 +15°C° 0 mm 1 m/S 754 mmHg 66%
    08:00 +16°C° 0 mm 1 m/S 754 mmHg 62%
    09:00 +17°C° 0 mm 2 m/S 754 mmHg 58%
    10:00 +18°C° 0 mm 2 m/S 754 mmHg 54%
    11:00 +19°C° 0 mm 2 m/S 753 mmHg 53%
    12:00 +19°C° 0 mm 3 m/S 753 mmHg 53%
    13:00 +20°C° 0 mm 3 m/S 753 mmHg 52%
    14:00 +19°C° 0 mm 3 m/S 752 mmHg 54%
    15:00 +19°C° 0 mm 3 m/S 752 mmHg 57%
    16:00 +18°C° 0 mm 3 m/S 751 mmHg 59%
    17:00 +17°C° 0 mm 2 m/S 751 mmHg 65%
    18:00 +16°C° 0 mm 2 m/S 751 mmHg 70%
    19:00 +15°C° 0 mm 2 m/S 751 mmHg 76%
    20:00 +15°C° 0.2 mm 2 m/S 752 mmHg 76%
    21:00 +15°C° 0.2 mm 2 m/S 752 mmHg 77%
    22:00 +15°C° 0.2 mm 1 m/S 752 mmHg 78%
    23:00 +14°C° 0.5 mm 2 m/S 752 mmHg 80%

    29 April, Montag

    Zeit Temperatur Niederschläge Wind Luftdruck Luftfeuchtigkeit
    00:00 +14°C° 0.5 mm 2 m/S 752 mmHg 82%
    01:00 +14°C° 0.5 mm 2 m/S 751 mmHg 84%
    02:00 +14°C° 0.2 mm 2 m/S 751 mmHg 84%
    03:00 +14°C° 0.2 mm 2 m/S 751 mmHg 85%
    04:00 +13°C° 0.2 mm 2 m/S 751 mmHg 85%
    05:00 +13°C° 0.1 mm 3 m/S 751 mmHg 84%
    06:00 +13°C° 0.1 mm 3 m/S 751 mmHg 84%
    07:00 +13°C° 0.1 mm 3 m/S 751 mmHg 83%
    08:00 +14°C° 0.3 mm 4 m/S 751 mmHg 81%
    09:00 +15°C° 0.3 mm 4 m/S 751 mmHg 78%
    10:00 +15°C° 0.3 mm 5 m/S 751 mmHg 75%
    11:00 +15°C° 1.2 mm 5 m/S 751 mmHg 76%
    12:00 +15°C° 1.2 mm 5 m/S 751 mmHg 77%
    13:00 +15°C° 1.2 mm 4 m/S 751 mmHg 78%
    14:00 +15°C° 1.4 mm 4 m/S 751 mmHg 78%
    15:00 +16°C° 1.4 mm 3 m/S 751 mmHg 77%
    16:00 +16°C° 1.4 mm 2 m/S 751 mmHg 77%
    17:00 +15°C° 0.4 mm 2 m/S 751 mmHg 80%
    18:00 +14°C° 0.4 mm 2 m/S 751 mmHg 83%
    19:00 +13°C° 0.4 mm 1 m/S 751 mmHg 87%
    20:00 +12°C° 0.1 mm 1 m/S 752 mmHg 88%
    21:00 +12°C° 0.1 mm 1 m/S 752 mmHg 88%
    22:00 +12°C° 0.1 mm 1 m/S 752 mmHg 89%
    23:00 +11°C° 0 mm 1 m/S 752 mmHg 89%

    30 April, Dienstag

    Zeit Temperatur Niederschläge Wind Luftdruck Luftfeuchtigkeit
    00:00 +11°C° 0 mm 1 m/S 752 mmHg 90%
    01:00 +11°C° 0 mm 1 m/S 752 mmHg 90%
    02:00 +11°C° 0 mm 1 m/S 752 mmHg 90%
    03:00 +10°C° 0 mm 1 m/S 752 mmHg 90%
    04:00 +10°C° 0 mm 1 m/S 752 mmHg 90%
    05:00 +11°C° 0 mm 1 m/S 752 mmHg 86%
    06:00 +12°C° 0 mm 1 m/S 752 mmHg 82%
    07:00 +12°C° 0 mm 0 m/S 752 mmHg 79%
    08:00 +14°C° 0 mm 1 m/S 752 mmHg 74%
    09:00 +15°C° 0 mm 1 m/S 752 mmHg 69%
    10:00 +18°C° 0 mm 1 m/S 752 mmHg 64%
    11:00 +17°C° 0.1 mm 2 m/S 752 mmHg 63%
    12:00 +18°C° 0.1 mm 2 m/S 751 mmHg 62%
    13:00 +18°C° 0.1 mm 2 m/S 751 mmHg 61%
    14:00 +18°C° 0.2 mm 2 m/S 751 mmHg 64%
    15:00 +18°C° 0.2 mm 3 m/S 751 mmHg 67%
    16:00 +17°C° 0.2 mm 3 m/S 751 mmHg 69%
    17:00 +16°C° 0.3 mm 2 m/S 751 mmHg 75%
    18:00 +15°C° 0.3 mm 2 m/S 751 mmHg 80%
    19:00 +14°C° 0.3 mm 1 m/S 752 mmHg 86%
    20:00 +14°C° 0 mm 1 m/S 752 mmHg 87%
    21:00 +13°C° 0 mm 1 m/S 752 mmHg 89%
    22:00 +13°C° 0 mm 1 m/S 753 mmHg 90%
    23:00 +13°C° 0 mm 1 m/S 752 mmHg 91%
    Mehr zeigen